Kezdőlap
METAR-TAF:

METAR-TAF

Repülőterek :

Whiteside County Airport (Jos. H. Bittorf Field)

Sterling-Rock Falls, Illinois, Amerikai Egyesült Államok

földrajzi szélesség: 41-45N, földrajzi hosszúság: 089-40W, magasság: 197 m

Jelenlegi meteorológiai megfigyelések

A jelentés 22 perccel ezelõtt készült, 15:56 UTC
Kelet-délkeleti szél 5 kt
Hőmérséklet 1°C
Páratartalom 86%
Légköri nyomás 1025 hPa
Látótávolság: 16.1 km
Derült ég

METAR: KSQI 081556Z AUTO 11005KT 10SM CLR 01/M01 A3026 RMK AO2 SLP113 T00111011 FZRANO

Idő: 10:18 (16:18 UTC)


TAF: hiányzik

Meteorológiai megfigyelések és előrejelzések több, mint 4000 repülőtéren (METAR és TAF jelentéseket).

A térképen piros és sárga pontok jelzik az elérhető meteorológiai állomásokat.

Mozgassa az egeret a pont fölött, hogy megjelenjen az állomás neve.

Azután kattintson az időjárási megfigyelések és előrejelzések megtekintéséhez.

A térkép megváltoztatása: kattintson a fekete keresztel jelölt zöld gombra ráközelítéshez, a vonallal jelölt zöld gombra távolításhoz, vagy a zöld nyilakra a szomszédos térképek eléréséhez.


METAR-TAF: